COSMOS 1275 DEB, 13470

Orbit data source: Space-Track

COSMOS 1275 DEB, 13470 is space debris in LEO originally from a launch on Thu, 04 Jun 1981 UTC launched from the Plesetsk Missile And Space Complex (PKMTR). Debris objects in space refer to the collection of defunct objects orbiting the Earth. Examples of debris include non-operational satellites, rocket bodies, and fragments generated from explosions, collisions, or faulty payload assembly.

Loading next visibility...
Identifier
13470, 1981-053FS
Orbit
LEO
Country
Flag of CISCIS
Related business
Manufacturer
Unknown
Mission
Spacecraft
Bus & Motor
Unknown
Mass
Unknown
Launch date (UTC)
1981-06-04 (45 years ago)
Launch vehicle
Unknown
Launch site
Plesetsk Missile And Space Complex (PKMTR)
Object type
Payload
Rocket body
Debris
Shape & HBR
Unknown shape, 0.1 m
Radar Cross Section
Small (<0.1 m²)

Expand to show TLE details & history
Last TLE update: 15 hours ago

TLE from 15 hours ago
0 COSMOS 1275 DEB
1 13470U 81053FS  26104.42055295  .00000084  00000-0  11534-3 0  9996
2 13470  82.8191 226.9933 0238249  59.3533   8.7846 13.35268362134220
Epoch: 2026-04-14T10:05Z
TLE epoch observation values (Epoch: 2026-04-14T10:05:35.774Z)
Latitude
67.5313°
Longitude
-109.36227°
Altitude
961.99 km
Speed
7.463 km/s
True Right ascension
16h 18m 32s
True Declination
67° 24' 47"
Sunlit
Object was in daylight at epoch
Visualization orbit readout
Latitude
Unknown
Longitude
Unknown
Altitude
Unknown
Speed
Unknown
Apparent Right ascension
Unknown
Apparent Declination
Unknown
Sunlit
N/A
Visualization observer readout
Local Sidereal Time
07:40:50
Azimuth
Unknown
Elevation
Unknown
Doppler factor
Unknown
Orbital elements
Apogee altitude
1,302.905 km
Perigee altitude
945.422 km
Semi-major axis
7,502.3 km
Eccentricity
0.02382
Inclination
82.8191°
RAAN
226.9933°
Arg. of periapsis
59.3533°
True anomaly
9.21417°
Mean anomaly
8.7846°
Eccentric anomaly
8.9981°
Mean motion
3.34004 °/min
Orbital period
107.78 mins
BSTAR
0.00011534
Loading maneuver chart data...
Computing Atmospheric mass density...
Loading historical data...
Loading historical data...
Loading historical data...
Loading historical data...
Loading historical data...
Loading historical data...
Loading historical data...

Documentation

Showing up to 5 results
|